Powrót do katalogu

ABS 6

LMI 1

AktywnyŁącznośćGEO
NORAD 25924·PAYLOAD·🇦🇪 UAE🇧🇲 BM

Wystrzelony Sep 26, 1999 z Baikonur Cosmodrome

Loading…

TLE

ŚwieżeSource: Space-Track

Epoka: Sep 14, 2026, 12:49 UTC

1 25924U 99053A   26257.53422340 -.00000127  00000-0  00000-0 0  9994
2 25924   0.0237 238.9434 0001699 254.5361 211.3583  1.00272616 98735

Śledź ABS 6 w czasie rzeczywistym z AllMySat

Download on the App Store